GW1821 Weather Reports


time (UTC)temp
C
wind
direction
speed
KPH
gust
KPH
rain 1hr
cm
rain 24hr
cm
rain mn
cm
humidity
%
barometer
mb
20230128005635 -9 287 4.8 12.9 0.00 0.00 0.00 69 1009.8
20230128005135 -9 292 6.4 17.7 0.00 0.00 0.00 69 1009.6
20230128004635 -9 280 8.0 17.7 0.00 0.00 0.00 69 1009.5
20230128004135 -9 269 6.4 17.7 0.00 0.00 0.00 69 1009.4
20230128003633 -9 267 8.0 17.7 0.00 0.00 0.00 69 1009.4
20230128003135 -9 299 4.8 17.7 0.00 0.00 0.00 69 1009.3
20230128002613 -9 273 4.8 17.7 0.00 0.00 0.00 69 1009.2
20230128002114 -9 286 4.8 17.7 0.00 0.00 0.00 69 1009.0
20230128001606 -9 239 4.8 11.3 0.00 0.00 0.00 69 1009.0
20230128001105 -9 305 4.8 12.9 0.00 0.00 0.00 68 1008.9
20230128000607 -8 296 6.4 17.7 0.00 0.00 0.00 68 1008.7
20230128000057 -8 156 6.4 17.7 0.00 0.00 0.00 68 1008.6
20230127235558 -8 298 6.4 19.3 0.00 0.00 0.00 68 1008.4
20230127235054 -8 282 6.4 19.3 0.00 0.00 0.00 68 1008.2
20230127234821 -8 281 8.0 22.5 0.00 0.00 0.00 68 1008.1
20230127234047 -8 306 8.0 22.5 0.00 0.00 0.00 68 1008.0
20230127233814 -8 300 6.4 19.3 0.00 0.00 0.00 68 1007.8
20230127233308 -8 287 4.8 22.5 0.00 0.00 0.00 68 1007.4
20230127232532 -8 281 4.8 22.5 0.00 0.00 0.00 67 1007.2
20230127232258 -8 317 8.0 22.5 0.00 0.00 0.00 67 1007.1
20230127231528 -8 290 8.0 22.5 0.00 0.00 0.00 67 1006.9
20230127231029 -7 283 6.4 22.5 0.00 0.00 0.00 68 1006.8
20230127230525 -7 302 6.4 19.3 0.00 0.00 0.00 68 1006.6
20230127230019 -7 256 6.4 16.1 0.00 0.00 0.00 67 1006.4
20230127225509 -7 283 6.4 16.1 0.00 0.00 0.00 66 1006.4
20230127225011 -7 257 6.4 20.9 0.00 0.00 0.00 66 1006.2
20230127224509 -7 240 6.4 20.9 0.00 0.00 0.00 65 1006.0
20230127224008 -7 279 6.4 16.1 0.00 0.00 0.00 65 1005.9
20230127223503 -7 310 6.4 16.1 0.00 0.00 0.00 65 1005.8
20230127223004 -7 280 6.4 19.3 0.00 0.00 0.00 65 1005.7
20230127222501 -6 305 8.0 19.3 0.00 0.00 0.00 64 1005.6
20230127222229 -6 286 8.0 17.7 0.00 0.00 0.00 64 1005.5
20230127221456 -6 235 8.0 19.3 0.00 0.00 0.00 64 1005.4
20230127220957 -6 246 8.0 19.3 0.00 0.00 0.00 65 1005.2
20230127220457 -6 306 8.0 17.7 0.00 0.00 0.00 64 1005.1
20230127215958 -6 307 8.0 20.9 0.00 0.00 0.00 64 1005.0
20230127215724 -6 285 9.7 20.9 0.00 0.00 0.00 64 1005.0
20230127214954 -6 300 11.3 22.5 0.00 0.00 0.00 63 1004.7
20230127214454 -6 339 9.7 22.5 0.00 0.00 0.00 63 1004.6
20230127214225 -6 298 9.7 20.9 0.00 0.00 0.00 65 1004.5
20230127213716 -6 316 8.0 17.7 0.00 0.00 0.00 65 1004.5
20230127213619 -6 314 9.7 20.9 0.00 0.00 0.00 65 1004.3
20230127212436 -6 331 8.0 25.7 0.00 0.00 0.00 65 1004.3
20230127211936 -6 290 8.0 25.7 0.00 0.00 0.00 64 1004.2
20230127211435 -6 313 9.7 22.5 0.00 0.00 0.00 65 1004.1
20230127210932 -6 298 9.7 25.7 0.00 0.00 0.00 64 1004.1
20230127210431 -5 341 9.7 25.7 0.00 0.00 0.00 64 1004.0
20230127205930 -5 338 11.3 27.4 0.00 0.00 0.00 64 1003.9
20230127205431 -5 275 11.3 27.4 0.00 0.00 0.00 64 1003.8
20230127204925 -5 323 8.0 20.9 0.00 0.00 0.00 65 1003.5
20230127204419 -5 290 9.7 24.1 0.00 0.00 0.00 66 1003.5
20230127203922 -5 330 11.3 25.7 0.00 0.00 0.00 65 1003.4
20230127203419 -5 324 9.7 25.7 0.00 0.00 0.00 66 1003.2
20230127202919 -5 337 11.3 22.5 0.00 0.00 0.00 66 1003.3
20230127202422 -5 329 12.9 25.7 0.00 0.00 0.00 66 1003.2
20230127201920 -5 299 11.3 27.4 0.00 0.00 0.00 66 1003.2
20230127201420 -5 277 11.3 27.4 0.00 0.00 0.00 66 1003.0
20230127200917 -5 252 12.9 25.7 0.00 0.00 0.00 68 1003.0
20230127200417 -5 285 11.3 25.7 0.00 0.00 0.00 68 1003.0
20230127195915 -5 265 11.3 25.7 0.00 0.00 0.00 69 1002.7
20230127195419 -5 257 9.7 25.7 0.00 0.00 0.00 68 1002.6
20230127195415 -5 306 12.9 25.7 0.00 0.00 0.00 68 1002.6
20230127194413 -5 277 9.7 27.4 0.00 0.00 0.00 70 1002.5
20230127193912 -5 270 11.3 27.4 0.00 0.00 0.00 70 1002.5
20230127193410 -5 291 11.3 29.0 0.00 0.00 0.00 70 1002.4
20230127192906 -5 273 12.9 29.0 0.00 0.00 0.00 70 1002.3
20230127192404 -5 263 12.9 29.0 0.00 0.00 0.00 70 1002.2
20230127192134 -5 298 12.9 29.0 0.00 0.00 0.00 70 1002.1
20230127191400 -5 272 12.9 25.7 0.00 0.00 0.00 71 1002.0
20230127191131 -5 310 12.9 30.6 0.00 0.00 0.00 70 1001.9
20230127190359 -5 298 12.9 30.6 0.00 0.00 0.00 71 1002.0
20230127185859 -5 316 12.9 29.0 0.00 0.00 0.00 71 1001.9
20230127185627 -5 248 11.3 24.1 0.00 0.00 0.00 71 1001.7
20230127184853 -5 267 11.3 27.4 0.00 0.00 0.00 72 1001.6
20230127184352 -5 278 12.9 27.4 0.00 0.00 0.00 72 1001.6
20230127183851 -5 292 12.9 29.0 0.00 0.00 0.00 72 1001.5
20230127183352 -5 267 12.9 29.0 0.00 0.00 0.00 72 1001.4
20230127182846 -5 279 11.3 29.0 0.00 0.00 0.00 72 1001.4
20230127182343 -5 301 9.7 25.7 0.00 0.00 0.00 73 1001.3
20230127181843 -5 267 9.7 25.7 0.00 0.00 0.00 73 1001.3
20230127181344 -5 269 9.7 25.7 0.00 0.00 0.00 73 1001.3
20230127180843 -5 285 11.3 25.7 0.00 0.00 0.00 73 1001.4
20230127180340 -5 305 12.9 25.7 0.00 0.00 0.00 74 1001.2
20230127180110 -5 323 12.9 27.4 0.00 0.00 0.00 73 1001.0
20230127175338 -5 279 11.3 27.4 0.00 0.00 0.00 73 1000.7
20230127175107 -5 287 12.9 33.8 0.00 0.00 0.00 73 1000.7
20230127174333 -5 319 12.9 33.8 0.00 0.00 0.00 74 1000.6
20230127173832 -5 306 11.3 32.2 0.00 0.00 0.00 75 1000.4
20230127173325 -5 292 11.3 30.6 0.00 0.00 0.00 75 1000.4
20230127172825 -5 288 11.3 27.4 0.00 0.00 0.00 76 1000.5
20230127172559 -5 293 12.9 35.4 0.00 0.00 0.00 76 1000.3
20230127172058 -4 275 11.3 35.4 0.00 0.00 0.00 77 1000.4
20230127171326 -4 275 11.3 27.4 0.00 0.00 0.00 78 1000.2
20230127170826 -4 209 12.9 25.7 0.00 0.00 0.00 78 1000.2
20230127170327 -4 273 11.3 25.7 0.00 0.00 0.00 78 1000.2
20230127165825 -4 292 9.7 22.5 0.00 0.00 0.00 79 1000.1
20230127165553 -4 284 9.7 19.3 0.00 0.00 0.00 79 1000.0
20230127164822 -4 300 11.3 24.1 0.00 0.00 0.00 79 999.8
20230127164320 -4 259 12.9 24.1 0.00 0.00 0.00 79 999.8
20230127163817 -4 306 12.9 24.1 0.00 0.00 0.00 79 999.7
20230127163318 -4 326 12.9 25.7 0.00 0.00 0.00 79 999.6
20230127162816 -4 322 12.9 25.7 0.00 0.00 0.00 80 999.4
20230127162316 -4 271 11.3 25.7 0.00 0.00 0.00 80 999.2
20230127162044 -4 259 11.3 29.0 0.00 0.00 0.00 80 999.0
20230127161310 -3 298 12.9 29.0 0.00 0.00 0.00 81 998.7
20230127160808 -3 290 12.9 25.7 0.00 0.00 0.00 80 998.7
20230127160306 -3 250 11.3 25.7 0.00 0.00 0.00 80 998.7
20230127155802 -3 306 11.3 25.7 0.00 0.00 0.00 80 998.5
20230127155534 -3 304 11.3 27.4 0.00 0.00 0.00 80 998.3
20230127154800 -3 290 11.3 27.4 0.00 0.00 0.00 80 998.1
20230127154257 -2 302 9.7 24.1 0.00 0.00 0.00 81 997.9
20230127153755 -2 311 8.0 19.3 0.00 0.00 0.00 81 997.7
20230127153253 -2 329 8.0 20.9 0.00 0.00 0.00 81 997.5
20230127153023 -2 292 9.7 25.7 0.00 0.00 0.00 81 997.5
20230127152517 -2 300 11.3 25.7 0.00 0.00 0.00 81 997.4
20230127151745 -2 306 12.9 38.6 0.00 0.00 0.00 80 997.2
20230127151243 -2 304 14.5 38.6 0.00 0.00 0.00 80 997.0
20230127150744 -2 288 12.9 30.6 0.00 0.00 0.00 81 996.9
20230127150247 -1 303 9.7 25.7 0.00 0.00 0.00 82 996.5
20230127145741 -1 305 11.3 22.5 0.00 0.00 0.00 81 996.3
20230127145239 -1 306 11.3 24.1 0.00 0.00 0.00 81 996.1
20230127144739 -1 288 9.7 27.4 0.00 0.00 0.00 82 995.9
20230127144240 -1 313 9.7 27.4 0.00 0.00 0.00 85 995.6
20230127143737 0 305 9.7 29.0 0.00 0.00 0.00 85 995.3
20230127143731 -1 264 9.7 22.5 0.00 0.00 0.00 85 995.5
20230127142729 0 311 9.7 29.0 0.00 0.00 0.00 85 995.2
20230127142228 0 289 8.0 20.9 0.00 0.00 0.00 86 995.1
20230127141728 0 246 9.7 25.7 0.00 0.00 0.00 86 994.9
20230127141229 0 286 9.7 25.7 0.00 0.00 0.00 86 994.8
20230127140957 0 284 9.7 22.5 0.00 0.00 0.00 88 994.5
20230127140219 0 291 8.0 19.3 0.00 0.00 0.00 89 994.2
20230127135719 0 273 8.0 17.7 0.00 0.00 0.00 90 994.0
20230127135221 0 286 8.0 17.7 0.00 0.00 0.00 90 993.9
20230127134717 0 299 6.4 19.3 0.00 0.00 0.00 91 993.7
20230127134213 0 270 6.4 19.3 0.00 0.00 0.00 92 993.5
20230127133712 0 263 4.8 16.1 0.00 0.00 0.00 93 993.4
20230127133213 0 291 4.8 12.9 0.00 0.00 0.00 93 993.3
20230127132709 0 309 4.8 14.5 0.00 0.00 0.00 93 993.3
20230127132208 0 268 3.2 14.5 0.00 0.00 0.00 93 993.2
20230127131937 0 265 1.6 9.7 0.00 0.00 0.00 93 993.1
20230127131133 -1 232 1.6 6.4 0.00 0.00 0.00 93 993.0
20230127130634 -1 232 3.2 8.0 0.00 0.00 0.00 93 992.9
20230127130134 -1 232 3.2 8.0 0.00 0.00 0.00 93 992.9
20230127125616 -1 215 1.6 6.4 0.00 0.00 0.00 92 992.9
20230127125114 -1 201 1.6 4.8 0.00 0.00 0.00 92 992.7
20230127124617 -1 194 1.6 6.4 0.00 0.00 0.00 92 992.6
20230127124109 -1 194 3.2 6.4 0.00 0.00 0.00 92 992.5
20230127123559 -1 211 3.2 8.0 0.00 0.00 0.00 92 992.5
20230127123100 -1 211 3.2 8.0 0.00 0.00 0.00 92 992.4
20230127122600 -1 173 3.2 8.0 0.00 0.00 0.00 92 992.3
20230127122058 -1 184 3.2 11.3 0.00 0.00 0.00 92 992.3
20230127121559 -1 192 3.2 11.3 0.00 0.00 0.00 92 992.1
20230127121325 -1 198 4.8 9.7 0.00 0.00 0.00 92 992.1
20230127120825 -2 232 4.8 9.7 0.00 0.00 0.00 92 992.1
20230127120058 -2 160 3.2 8.0 0.00 0.00 0.00 92 992.0
20230127120048 -2 239 3.2 9.7 0.00 0.00 0.00 92 992.1
20230127115135 -2 192 4.8 12.9 0.00 0.00 0.00 92 992.0
20230127114023 -2 202 4.8 11.3 0.00 0.00 0.00 92 992.0
20230127113749 -2 161 4.8 14.5 0.00 0.00 0.00 92 992.0
20230127113016 -2 150 4.8 14.5 0.00 0.00 0.00 92 992.0
20230127112516 -2 185 4.8 19.3 0.00 0.00 0.00 92 992.0
20230127112014 -2 204 6.4 19.3 0.00 0.00 0.00 92 992.1
20230127111516 -2 180 8.0 20.9 0.00 0.00 0.00 92 992.1
20230127111014 -2 175 8.0 20.9 0.00 0.00 0.00 91 992.3
20230127110741 -2 144 8.0 17.7 0.00 0.00 0.00 91 992.3
20230127110011 -2 161 6.4 16.1 0.00 0.00 0.00 91 992.4
20230127105512 -3 196 6.4 16.1 0.00 0.00 0.00 91 992.5
20230127105010 -3 157 6.4 16.1 0.00 0.00 0.00 91 992.5
20230127104509 -3 154 6.4 19.3 0.00 0.00 0.00 91 992.6
20230127104236 -3 144 6.4 19.3 0.00 0.00 0.00 91 992.6
20230127103504 -3 190 6.4 12.9 0.00 0.00 0.00 91 992.7
20230127103002 -3 153 6.4 16.1 0.00 0.00 0.00 91 992.7
20230127102501 -3 182 4.8 16.1 0.00 0.00 0.00 91 992.7
20230127101956 -3 179 4.8 11.3 0.00 0.00 0.00 91 992.8
20230127101459 -3 173 6.4 16.1 0.00 0.00 0.00 91 992.8
20230127100957 -3 185 8.0 16.1 0.00 0.00 0.00 91 992.9
20230127100727 -3 144 6.4 14.5 0.00 0.00 0.00 91 992.8
20230127095959 -3 174 6.4 14.5 0.00 0.00 0.00 91 992.9
20230127095452 -3 187 8.0 14.5 0.00 0.00 0.00 91 993.1
20230127094953 -3 188 6.4 14.5 0.00 0.00 0.00 91 993.2
20230127094454 -4 145 6.4 16.1 0.00 0.00 0.00 90 993.2
20230127093952 -4 153 8.0 22.5 0.00 0.00 0.00 90 993.4
20230127093518 -4 116 8.0 20.9 0.00 0.00 0.00 90 993.5
20230127093448 -4 169 8.0 22.5 0.00 0.00 0.00 90 993.4
20230127091945 -5 111 8.0 17.7 0.00 0.00 0.00 90 993.7
20230127091445 -5 181 6.4 19.3 0.00 0.00 0.00 91 993.8
20230127090944 -5 146 8.0 22.5 0.00 0.00 0.00 90 994.0
20230127090716 -5 147 8.0 22.5 0.00 0.00 0.00 90 994.1
20230127090209 -5 156 8.0 19.3 0.00 0.00 0.00 90 994.2
20230127085438 -5 113 8.0 19.3 0.00 0.00 0.00 90 994.3
20230127084940 -5 160 8.0 17.7 0.00 0.00 0.00 90 994.5
20230127084434 -5 160 6.4 17.7 0.00 0.00 0.00 90 994.6
20230127083935 -6 133 6.4 17.7 0.00 0.00 0.00 90 994.7
20230127083429 -6 142 6.4 16.1 0.00 0.00 0.00 90 994.8
20230127082931 -6 155 6.4 14.5 0.00 0.00 0.00 90 995.1
20230127082926 -6 134 4.8 12.9 0.00 0.00 0.00 90 995.0
20230127082155 -6 128 8.0 14.5 0.00 0.00 0.00 90 995.2
20230127081420 -6 148 6.4 14.5 0.00 0.00 0.00 90 995.3
20230127080918 -6 151 4.8 14.5 0.00 0.00 0.00 90 995.4
20230127080413 -6 153 4.8 14.5 0.00 0.00 0.00 89 995.6
20230127080137 -7 151 4.8 14.5 0.00 0.00 0.00 89 995.7
20230127075629 -7 159 6.4 19.3 0.00 0.00 0.00 89 995.8
20230127075123 -7 130 6.4 19.3 0.00 0.00 0.00 89 995.9
20230127074350 -7 97 6.4 19.3 0.00 0.00 0.00 89 996.3
20230127073846 -7 166 6.4 24.1 0.00 0.00 0.00 89 996.4
20230127073347 -7 153 8.0 24.1 0.00 0.00 0.00 89 996.5
20230127072833 -7 99 8.0 17.7 0.00 0.00 0.00 89 996.6
20230127072330 -7 180 8.0 17.7 0.00 0.00 0.00 89 996.8
20230127071826 -7 137 6.4 17.7 0.00 0.00 0.00 89 996.9
20230127071327 -8 169 6.4 20.9 0.00 0.00 0.00 89 997.1
20230127070827 -8 98 6.4 20.9 0.00 0.00 0.00 89 997.1
20230127070326 -8 152 6.4 17.7 0.00 0.00 0.00 89 997.1
20230127065828 -8 143 6.4 22.5 0.00 0.00 0.00 88 997.2
20230127065557 -8 149 8.0 22.5 0.00 0.00 0.00 88 997.4
20230127064821 -8 105 8.0 19.3 0.00 0.00 0.00 88 997.6
20230127064318 -8 113 8.0 19.3 0.00 0.00 0.00 88 997.7
20230127064046 -8 116 8.0 19.3 0.00 0.00 0.00 88 997.9
20230127063307 -8 104 9.7 19.3 0.00 0.00 0.00 88 998.0
20230127062806 -8 152 9.7 24.1 0.00 0.00 0.00 88 998.3
20230127062306 -8 131 9.7 24.1 0.00 0.00 0.00 87 998.4
20230127061805 -8 187 8.0 24.1 0.00 0.00 0.00 87 998.6
20230127061536 -8 128 8.0 24.1 0.00 0.00 0.00 87 998.7
20230127060802 -8 163 6.4 24.1 0.00 0.00 0.00 87 999.1
20230127060302 -8 173 8.0 16.1 0.00 0.00 0.00 87 999.2
20230127055803 -8 113 6.4 16.1 0.00 0.00 0.00 86 999.3
20230127055306 -8 158 8.0 16.1 0.00 0.00 0.00 86 999.5
20230127054759 -8 84 8.0 20.9 0.00 0.00 0.00 86 999.6
20230127054253 -8 140 8.0 22.5 0.00 0.00 0.00 86 999.7
20230127053754 -9 146 8.0 22.5 0.00 0.00 0.00 85 1000.0
20230127053254 -9 140 8.0 17.7 0.00 0.00 0.00 85 1000.2
20230127053020 -9 117 6.4 17.7 0.00 0.00 0.00 85 1000.3
20230127052520 -9 139 6.4 17.7 0.00 0.00 0.00 84 1000.5
20230127051747 -9 121 6.4 17.7 0.00 0.00 0.00 84 1000.6
20230127051243 -9 111 6.4 16.1 0.00 0.00 0.00 84 1000.8
20230127050740 -9 149 6.4 16.1 0.00 0.00 0.00 84 1000.9
20230127050239 -9 115 4.8 14.5 0.00 0.00 0.00 83 1001.0
20230127045743 -9 122 4.8 11.3 0.00 0.00 0.00 83 1001.3
20230127045737 -9 123 4.8 14.5 0.00 0.00 0.00 83 1001.2
20230127044732 -9 109 4.8 14.5 0.00 0.00 0.00 84 1001.6
20230127044224 -9 134 4.8 14.5 0.00 0.00 0.00 84 1001.8
20230127043721 -9 121 4.8 12.9 0.00 0.00 0.00 83 1002.2
20230127043221 -9 131 4.8 12.9 0.00 0.00 0.00 83 1002.4
20230127042721 -9 140 4.8 12.9 0.00 0.00 0.00 83 1002.6
20230127042220 -9 161 4.8 16.1 0.00 0.00 0.00 83 1002.8
20230127041721 -9 148 4.8 16.1 0.00 0.00 0.00 83 1002.9
20230127041216 -9 174 4.8 16.1 0.00 0.00 0.00 82 1003.1
20230127040712 -9 132 6.4 16.1 0.00 0.00 0.00 83 1003.3
20230127040209 -9 118 8.0 17.7 0.00 0.00 0.00 82 1003.3
20230127035708 -9 117 9.7 17.7 0.00 0.00 0.00 82 1003.5
20230127035205 -9 161 8.0 19.3 0.00 0.00 0.00 81 1003.8
20230127034704 -9 155 6.4 19.3 0.00 0.00 0.00 81 1003.8
20230127034156 -9 107 9.7 25.7 0.00 0.00 0.00 81 1004.1
20230127033654 -9 176 11.3 25.7 0.00 0.00 0.00 82 1004.2
20230127033156 -9 115 9.7 19.3 0.00 0.00 0.00 81 1004.4
20230127032635 -9 137 9.7 22.5 0.00 0.00 0.00 82 1004.5
20230127032135 -10 153 9.7 22.5 0.00 0.00 0.00 83 1004.7
20230127031635 -10 139 8.0 19.3 0.00 0.00 0.00 83 1004.8
20230127031133 -10 167 8.0 16.1 0.00 0.00 0.00 83 1004.9
20230127030634 -10 179 8.0 19.3 0.00 0.00 0.00 83 1005.1
20230127030138 -10 134 6.4 19.3 0.00 0.00 0.00 83 1005.1
20230127025606 -10 133 6.4 16.1 0.00 0.00 0.00 83 1005.3
20230127025100 -10 154 6.4 14.5 0.00 0.00 0.00 83 1005.4
20230127024557 -10 126 4.8 17.7 0.00 0.00 0.00 83 1005.4
20230127024056 -10 158 4.8 17.7 0.00 0.00 0.00 83 1005.4
20230127023825 -10 143 6.4 17.7 0.00 0.00 0.00 83 1005.5
20230127023053 -10 119 8.0 22.5 0.00 0.00 0.00 83 1005.7
20230127022552 -10 120 8.0 22.5 0.00 0.00 0.00 83 1005.8
20230127022052 -10 134 8.0 19.3 0.00 0.00 0.00 83 1006.1
20230127021553 -10 220 8.0 19.3 0.00 0.00 0.00 82 1006.2
20230127021051 -10 144 6.4 19.3 0.00 0.00 0.00 82 1006.3
20230127020551 -10 152 8.0 19.3 0.00 0.00 0.00 82 1006.4
20230127020045 -10 157 8.0 19.3 0.00 0.00 0.00 82 1006.6
20230127015039 -10 123 4.8 19.3 0.00 0.00 0.00 81 1006.8
20230127014536 -10 172 6.4 14.5 0.00 0.00 0.00 81 1006.9
20230127014034 -10 161 8.0 20.9 0.00 0.00 0.00 81 1007.1
20230127013532 -10 153 8.0 20.9 0.00 0.00 0.00 81 1007.3
20230127013032 -10 109 8.0 22.5 0.00 0.00 0.00 81 1007.8
20230127012529 -10 165 8.0 22.5 0.00 0.00 0.00 80 1007.9
20230127012028 -10 190 6.4 16.1 0.00 0.00 0.00 80 1008.0
20230127011529 -10 170 6.4 14.5 0.00 0.00 0.00 79 1008.2
20230127011021 -10 180 6.4 14.5 0.00 0.00 0.00 79 1008.3
20230127010521 -10 153 4.8 14.5 0.00 0.00 0.00 78 1008.6
20230127010021 -10 161 4.8 12.9 0.00 0.00 0.00 77 1008.8